www.pogodaiklimat.ru

Погода и климат >> Архив погоды >> Гана >> Аким Ода


ПОГОДА в Аким Ода

  • Прогноз погоды в Аким Ода
  • Монитор погоды в Аким Ода

АРХИВ ПОГОДЫ в Аким Ода

Время (UTC), дата Ветер
(напр.,м/с)
 
Видим.   Явления Облачность Т
(С)
Тd
(С)
f
(%)
Тe
(С)
Тes
(С)
Комфортность P
(гПа)
Po
(гПа)
Тmin
(С)
Tmax
(С)
R
(мм)
R24
(мм)
S
(см)
09 18.05 ЮЗ 1 18 км 8/6 450 м
[Cu med, cong Ci sp]
+27.0 +25.6 92 +40 +44 очень
душно
1012.7 996.7
12 18.05 ЮЗ 2 25 км 8/5 480 м
[Cu med, cong Ci sp]
+31.6 +25.9 72 +47 +57 опасность
перегрева
1011.3 995.5
21 18.05 ЮЗ 2 16 км 8/0
[Ac trans Cs]
+27.5 +25.5 89 +40 +40 очень
душно
1012.0 996.0
00 19.05 ЮВ 1 15 км 9/8 360 м
[Sc Ac trans Ci sp]
+27.0 +20.1 66 +33 +33 очень
душно
1012.3 996.3
03 19.05 15 км н/о +26.0 +25.1 95 +37 +37 очень
душно
1011.5 995.5
06 19.05 ЮВ 1 200 м туман 9/8 300 м
[Sc Ac trans Cs]
+25.2 +24.7 97 +35 +35 очень
душно
1011.7 995.6 +24.4
09 19.05 СЗ 2 24 км {туман} 9/8 300 м
[Cu med, cong Ac As Ci]
+28.0 +26.2 90 +42 +44 опасность
перегрева
1012.6 996.6
12 19.05 ЮВ 2 26 км {туман} 8/8 420 м
[Cu Sc Ac trans Ci sp]
+32.0 +25.6 69 +47 +51 опасность
перегрева
1011.4 995.7
15 19.05 ЮЗ 3 26 км гроза без осадков 9/6 400 м
[Cb cap Ac trans Cs]
+30.0 +25 +27 комфорт 1009.9 994.1
18 19.05 ЮВ 2 12 км в посл. час гроза {дождь} 9/0
[Ac trans Cs]
+27.0 +25.0 89 +39 +39 очень
душно
1011.1 995.1 +33.0 0.4
21 19.05 ЮЗ 1 10 км 9/0
[Ac trans Cs]
+26.5 +25.1 92 +38 +38 очень
душно
1012.4 996.4
00 20.05 Ю 1 10 км 8/3 360 м
[Frnb Ac trans]
-0 -0 1013.5 995.9
06 20.05 штиль 0 15 км 9/8 360 м
[Sc Ac trans]
+24.5 +24.2 98 +34 +34 очень
душно
1012.2 996.1 +23.9 0.4
21 20.05 ЮЗ 1 12 км {гроза} 9/6 300 м
[Sc Ac trans Ci sp]
+22.8 +19 +19 1013.9 997.6
09 21.05 СЗ 1 15 км 6/0 300 м
[Ac trans Ci sp]
+28.0 +25.2 85 +41 +52 опасность
перегрева
1012.8 996.8
12 21.05 ЮЗ 1 15 км 9/8 400 м
[Cu Sc Ci sp]
+31.5 +26.1 73 +47 +52 опасность
перегрева
1012.4 996.6
15 21.05 штиль 0 8000 м гроза, ливневой дождь 9/9 360 м
[Cb cap]
+26.5 +24.5 89 +37 +39 очень
душно
1010.6 994.6
18 21.05 8000 м гроза, ливневой дождь н/о +24.6 1012.0 995.9 +32.0 8
21 21.05 штиль 0 10 км {гроза, дождь} 9/8 360 м
[Sc Ac trans]
+24.1 +23.9 99 +33 +33 очень
душно
1011.7 995.5
00 22.05 С 1 10 км {гроза, дождь} 9/8 300 м
[Sc Ac trans]
+23.7 +23.7 100 +32 +32 очень
душно
1012.6 996.4 0.2
06 22.05 С 1 700 м туман 9/8 300 м
[Sc Ac trans Ci sp]
+23.4 +23.4 100 +33 +33 очень
душно
1012.6 996.4 +23.0 8
09 22.05 ЮЗ 1 12 км {туман} 8/6 450 м
[Cu med, cong Ac trans Ci sp]
+27.5 +25.5 89 +40 +44 очень
душно
1014.0 998.0
12 22.05 СЗ 1 12 км 8/8 500 м
[Cu med, cong Ci sp]
+32.0 +25.1 67 +46 +51 опасность
перегрева
1012.1 996.4
15 22.05 З 2 10 км в посл. час морось {дождь} 9/8 400 м
[Cu Sc Ac trans Cs]
+33.0 +25.0 63 +47 +48 опасность
перегрева
1008.5 992.9
21 22.05 штиль 0 12 км {гроза, дождь} 8/0
[Ac trans Cs]
+25.0 +24.3 96 +35 +35 очень
душно
1011.0 994.9
00 23.05 штиль 0 12 км {гроза, дождь} 9/6 360 м
[Sc Ac trans]
+24.5 +24.2 98 +34 +34 очень
душно
1011.6 995.5 0.2
09 23.05 СВ 1 18 км {туман} 9/9 360 м
[Cu Sc Ac trans]
+26.8 +25.5 93 +39 +41 очень
душно
1012.3 996.3
15 23.05 ЮВ 2 18 км гроза без осадков 9/6 420 м
[Cb cap Cs]
+31.5 +25.4 70 +46 +50 опасность
перегрева
1008.5 992.8
18 23.05 ЮЗ 1 18 км 9/5 400 м
[Sc Ac trans]
+26.0 +26.3 100 +39 +39 очень
душно
1009.0 993.0
21 23.05 Ю 1 15 км 8/4 400 м
[Sc Ac trans Ci sp]
+26.5 +25.1 92 +38 +38 очень
душно
1012.0 996.0
06 24.05 ЮЗ 1 15 км 9/8 360 м
[Sc Ac trans Cs]
+25.1 +23.4 90 +34 +34 очень
душно
1010.3 994.2 +23.4
09 24.05 ЮЗ 1 12 км 9/8 400 м
[Cu med, cong]
+28.1
15 24.05 0 гроза без осадков н/о +24.5 1008.3
18 24.05 ЮЗ 1 15 км в посл. час гроза 9/3 360 м
[Sc Ac trans Cs]
+25.8 +24.4 92 +36 +36 очень
душно
1009.0 993.0 +23.9 0.0
21 24.05 ЮВ 1 12 км 9/5 360 м
[Sc Ac trans]
+24.1 +23.9 99 +33 +33 очень
душно
1012.2 996.0
06 25.05 СЗ 1 8000 м дымка 9/8 300 м
[Sc Ac trans Cs]
+24.1 +23.8 98 +33 +33 очень
душно
1011.9 995.7 +23.6 0.0

 

Местоположение метеостанции Аким Ода (Гана): широта 5.93 долгота -0.98 высота над уровнем моря 140 м.

В архиве по умолчанию представлена погода в Аким Ода за последнюю неделю. Архивные данные за месяц целиком и за предыдущие месяцы, начиная с января 2011 года, Вы можете получить, выбрав интересующий диапазон дат из раскрывающегося списка и нажав кнопку "Ввод!".


*Определитесь, кто Вы:
робот инопланетянин человек

Внимание! Время в таблицах - всемирное. Для получения местного времени необходимо прибавить поправку, которая равна 1 ч.

Смотрите также архив погоды в соседних городах и на ближайших метеорологических станциях:

Погода в Солтпонде (Гана) (82 км)
Погода в Кофоридуа (Гана) (82 км)
Погода в Абетифи (Гана) (86 км)
Погода в Аккра (Гана) (97 км)
Погода в Кумаси (Гана) (111 км)
Погода в Тема (Гана) (114 км)
Погода в Акюсе (Гана) (123 км)
Погода Такоради (Гана) (146 км)
Погода в Сефви Беквай (Гана) (152 км)
Погода в Хо (Гана) (177 км)

Пояснения к столбцам:

Ветер - указаны скорость ветра в м/с - средняя за 10 мин, порывы в срок и между сроками (в фигурных скобках) и направление, откуда дует ветер: С - северный, СВ - северо-восточный, В - восточный, ЮВ - юго-восточный, Ю - южный, ЮЗ - юго-западный, З - западный, СЗ - северо-западный.
Видимость - горизонтальная дальность видимости в метрах или километрах. При видимости от 1 до 10 км при отсутствии осадков обычно наблюдается дымка, при ухудшении видимости до 1 км и менее - туман. В сухую погоду видимость может ухудшаться дымом, пылью или мглою.
Явления - указаны атмосферные явления, наблюдавшиеся в срок или в последний час перед сроком; фигурными скобками обозначены явления, наблюдавшиеся между сроками (за 1-3 часа до срока); квадратными скобками обозначены град или гололедные отложения с указанием их диаметра в мм.
Облачность - указаны через наклонную черту общая и нижняя облачность в баллах и высота нижней границы облаков в метрах; квадратными скобками обозначены формы облаков: Ci - перистые, Cs - перисто-слоистые, Cc - перисто-кучевые, Ac - высококучевые, As - высокослоистые, Sc - слоисто-кучевые, Ns - слоисто-дождевые, Cu - кучевые, Cb - кучево-дождевые. Подробнее классификацию облаков см. в Атласе облаков (PDF).
T - Температура воздуха - температура, измеренная на высоте 2 м над землей.
Td - Температура точки росы - температура, при понижении до которой содержащийся в воздухе водяной пар достигнет насыщения.
f - Относительная влажность воздуха - влажноcть воздуха, измеренная на высоте 2 м над землей.
Te - Эффективная температура - температура, которую ощущает одетый по сезону человек в тени. Характеристика душности погоды. При расчете учитывается влияние влажности воздуха и скорости ветра на теплоощущения человека.
Tes - Эффективная температура на солнце - температура, которую ощущает человек, с поправкой на солнечный нагрев. Характеристика знойности погоды. Зависит от высоты солнца над горизонтом, облачности и скорости ветра. Ночью, в пасмурную погоду, а также при ветре 12 м/с и более поправка равна нулю.
P - Атмосферное давление - приведенное к уровню моря атмосферное давление.
Po - Атмосферное давление - измеренное на уровне метеостанции атмосферное давление.
Tmin - Минимальная температура - минимум температуры воздуха на высоте 2 м над землей.
Tmax - Максимальная температура - максимум температуры воздуха на высоте 2 м над землей.
R - Количество осадков - Количество выпавших осадков за период времени, мм. При наведении курсора мыши на число - период времени, за который выпало указанное количество осадков.
R24 - Количество осадков - Количество выпавших осадков за 24 часа, мм.
S - Снежный покров - Высота снежного покрова, см. При наведении курсора мыши на число - состояние снежного покрова и степень покрытия местности в баллах.